ARIANE 5 R/B, 42952

Orbit data source: Space-Track

ARIANE 5 R/B, 42952 is space debris in HEO originally from a launch on Fri, 29 Sep 2017 UTC launched from the French Guiana (FRGUI). Debris objects in space refer to the collection of defunct objects orbiting the Earth. Examples of debris include non-operational satellites, rocket bodies, and fragments generated from explosions, collisions, or faulty payload assembly.

Loading next visibility...
Identifier
42952, 2017-059C
Orbit
HEO
Country
Flag of FRFR
Related business
Manufacturer
ArianeGroup
Mission
Spacecraft
Bus & Motor
ESC-A, Unknown motor
Mass
~5,000 kg wet, ~5,000 kg dry
Launch date (UTC)
2017-09-29 (8 years ago)
Launch vehicle
Unknown
Launch site
French Guiana (FRGUI)
Object type
Payload
Rocket body
Debris
Shape & HBR
Cyl + 1 Nozzle, 3.5 m
Radar Cross Section
41.627 m², Large (>1 m²)

Expand to show TLE details & history
Last TLE update: 14 hours ago

TLE from 14 hours ago
0 ARIANE 5 R/B
1 42952U 17059C   25295.81509098  .00001885  00000-0  71365-3 0  9994
2 42952   6.2989 342.2367 7114840 156.8791 265.1751  2.48081829 69146
Epoch: 2025-10-22T19:33Z
TLE epoch observation values (Epoch: 2025-10-22T19:33:43.860Z)
Latitude
0.00004°
Longitude
17.26523°
Altitude
26,603.757 km
Speed
2.623 km/s
True Right ascension
22h 48m 43s
True Declination
0° 00' 00"
Sunlit
Object was in daylight at epoch
Visualization orbit readout
Latitude
Unknown
Longitude
Unknown
Altitude
Unknown
Speed
Unknown
Apparent Right ascension
Unknown
Apparent Declination
Unknown
Sunlit
N/A
Visualization observer readout
Local Sidereal Time
04:52:51
Azimuth
Unknown
Elevation
Unknown
Doppler factor
Unknown
Orbital elements
Apogee altitude
33,080.935 km
Perigee altitude
273.736 km
Semi-major axis
23,055.472 km
Eccentricity
0.71148
Inclination
6.2989°
RAAN
342.2367°
Arg. of periapsis
156.8791°
True anomaly
203.00702°
Mean anomaly
265.1751°
Eccentric anomaly
232.73326°
Mean motion
0.61999 °/min
Orbital period
580.66 mins
BSTAR
0.00071365
Loading maneuver chart data...
Computing Atmospheric mass density...
Loading historical data...
Loading historical data...
Loading historical data...
Loading historical data...
Loading historical data...
Loading historical data...
Loading historical data...
Other satellites on launch #59 in the year 2017 (2017-09-29 UTC)

Documentation

Showing up to 5 results
|